EW2785 Weather Reports


Display with metric or nautical units.
time (UTC)temp
F
wind
direction
speed
MPH
gust
MPH
rain 1hr
in
rain 24hr
in
rain mn
in
humidity
%
barometer
mb
20260903213059 79 217 2.0 6.0 0.00 0.00 0.00 71 1010.5
20260903211549 79 217 2.0 5.0 0.00 0.00 0.00 70 1010.6
20260903210121 79 219 0.0 5.0 0.00 0.00 0.00 71 1010.2
20260903204550 79 210 0.0 2.0 0.00 0.00 0.00 74 1010.1
20260903203105 80 208 0.0 6.0 0.00 0.00 0.00 71 1010.2
20260903201548 80 217 4.0 9.0 0.00 0.00 0.00 69 1010.1
20260903200052 79 330 0.0 3.0 0.00 0.00 0.00 74 1010.2
20260903194541 79 212 2.0 8.0 0.00 0.00 0.00 72 1010.4
20260903193039 78 198 0.0 6.0 0.00 0.00 0.00 75 1010.7
20260903191540 78 205 1.0 5.0 0.00 0.00 0.00 75 1010.6
20260903190035 77 221 0.0 3.0 0.00 0.00 0.00 78 1010.5
20260903184531 76 202 1.0 4.0 0.00 0.00 0.00 81 1010.7
20260903183029 75 223 0.0 3.0 0.00 0.00 0.00 81 1010.9
20260903181528 75 217 0.0 5.0 0.00 0.00 0.00 81 1011.1
20260903180026 74 215 0.0 3.0 0.00 0.00 0.00 82 1011.3
20260903174522 74 153 0.0 3.0 0.00 0.00 0.00 81 1011.5
20260903173021 74 153 0.0 3.0 0.00 0.00 0.00 82 1011.6
20260903171519 74 197 1.0 3.0 0.00 0.00 0.00 82 1011.6
20260903170017 73 147 0.0 4.0 0.00 0.00 0.00 82 1011.8
20260903164515 73 211 0.0 5.0 0.00 0.00 0.00 85 1011.8
20260903163012 72 209 0.0 4.0 0.00 0.00 0.00 84 1012.1
20260903161512 72 211 0.0 6.0 0.00 0.00 0.00 84 1012.3
20260903160012 72 219 0.0 6.0 0.00 0.00 0.00 85 1012.3
20260903154507 72 202 0.0 6.0 0.00 0.00 0.00 85 1012.4
20260903153008 71 196 1.0 3.0 0.00 0.00 0.00 86 1012.5
20260903151504 71 209 1.0 4.0 0.00 0.00 0.00 87 1012.8
20260903150105 70 201 1.0 5.0 0.00 0.00 0.00 88 1012.6
20260903144604 69 217 1.0 5.0 0.00 0.00 0.00 88 1012.8
20260903143107 68 211 0.0 1.0 0.00 0.00 0.00 89 1012.8
20260903141602 67 260 0.0 1.0 0.00 0.00 0.00 89 1013.0
20260903140049 67 260 0.0 1.0 0.00 0.00 0.00 90 1013.1
20260903134552 66 260 0.0 0.0 0.00 0.00 0.00 90 1013.1
20260903133046 65 260 0.0 0.0 0.00 0.00 0.00 90 1013.0
20260903131547 65 260 0.0 1.0 0.00 0.00 0.00 90 1013.1
20260903130044 65 260 0.0 0.0 0.00 0.00 0.00 89 1013.1
20260903124545 64 260 0.0 0.0 0.00 0.00 0.00 90 1013.1
20260903123043 64 260 0.0 0.0 0.00 0.00 0.00 90 1013.1
20260903121542 64 198 0.0 0.0 0.00 0.00 0.00 89 1013.2
20260903120044 64 198 0.0 0.0 0.00 0.00 0.00 89 1013.4
20260903114545 64 198 0.0 0.0 0.00 0.00 0.00 90 1013.3
20260903113041 63 198 0.0 0.0 0.00 0.00 0.00 90 1013.3
20260903111543 63 198 0.0 1.0 0.00 0.00 0.00 89 1013.4
20260903110046 63 198 0.0 0.0 0.00 0.00 0.00 89 1013.4
20260903104543 63 198 0.0 0.0 0.00 0.00 0.00 89 1013.4
20260903103046 63 198 0.0 0.0 0.00 0.00 0.00 89 1013.3
20260903101541 63 198 0.0 1.0 0.00 0.00 0.00 89 1013.2
20260903100038 63 198 0.0 0.0 0.00 0.00 0.00 89 1013.1
20260903094537 63 198 0.0 0.0 0.00 0.00 0.00 89 1013.1
20260903093038 63 198 0.0 0.0 0.00 0.00 0.00 89 1013.0
20260903091534 63 198 0.0 2.0 0.00 0.00 0.00 89 1013.2
20260903090034 63 134 0.0 0.0 0.00 0.00 0.00 89 1013.2
20260903084532 64 134 0.0 0.0 0.00 0.00 0.00 88 1013.3
20260903083036 63 134 0.0 0.0 0.00 0.00 0.00 88 1013.3
20260903081533 63 134 0.0 0.0 0.00 0.00 0.00 88 1013.5
20260903080029 64 134 0.0 0.0 0.00 0.00 0.00 88 1013.8
20260903074528 64 134 0.0 0.0 0.00 0.00 0.00 87 1013.7
20260903073026 64 134 0.0 0.0 0.00 0.00 0.00 87 1013.5
20260903071525 64 134 0.0 1.0 0.00 0.00 0.00 86 1013.7
20260903070023 64 134 0.0 0.0 0.00 0.00 0.00 86 1014.0
20260903064521 64 134 0.0 0.0 0.00 0.00 0.00 85 1013.8
20260903063040 65 134 0.0 0.0 0.00 0.00 0.00 84 1014.0
20260903061520 65 134 0.0 1.0 0.00 0.00 0.00 83 1013.9
20260903060016 65 134 0.0 1.0 0.00 0.00 0.00 83 1014.0
20260903054516 66 134 0.0 4.0 0.00 0.00 0.00 81 1014.2
20260903053011 66 134 1.0 3.0 0.00 0.00 0.00 80 1014.7
20260903051510 66 133 1.0 3.0 0.00 0.00 0.00 78 1014.7
20260903050007 67 140 1.0 5.0 0.00 0.00 0.00 76 1014.7
20260903044506 67 134 0.0 3.0 0.00 0.00 0.00 76 1014.4
20260903043005 67 133 1.0 4.0 0.00 0.00 0.00 76 1014.7
20260903041506 67 136 0.0 4.0 0.00 0.00 0.00 75 1014.5
20260903040003 67 117 0.0 3.0 0.00 0.00 0.00 75 1014.6
20260903034502 67 138 0.0 4.0 0.00 0.00 0.00 75 1014.5
20260903033001 67 123 2.0 6.0 0.00 0.00 0.00 76 1014.5
20260903031559 67 128 2.0 4.0 0.00 0.00 0.00 76 1015.1
20260903030057 67 134 1.0 4.0 0.00 0.00 0.00 77 1015.5
20260903024557 67 121 1.0 4.0 0.00 0.00 0.00 78 1015.5
20260903023055 67 133 1.0 3.0 0.00 0.00 0.00 78 1016.0
20260903021555 67 130 1.0 5.0 0.00 0.00 0.00 78 1016.2
20260903020054 67 148 0.0 2.0 0.00 0.00 0.00 78 1016.2
20260903014554 68 140 0.0 2.0 0.00 0.00 0.00 77 1016.5
20260903013054 68 130 2.0 5.0 0.00 0.00 0.00 77 1016.7
20260903011604 68 141 3.0 7.0 0.00 0.00 0.00 76 1016.6
20260903010052 68 138 0.0 6.0 0.00 0.00 0.00 76 1016.5
20260903004551 68 138 3.0 7.0 0.00 0.00 0.00 77 1016.4
20260903003051 68 117 3.0 8.0 0.00 0.00 0.00 77 1016.4
20260903001551 68 142 1.0 7.0 0.00 0.00 0.00 78 1016.1
20260903000050 68 142 1.0 6.0 0.00 0.00 0.00 77 1016.2
20260902234551 68 137 2.0 6.0 0.00 0.00 0.00 77 1016.0
20260902233055 68 142 2.0 6.0 0.00 0.00 0.00 77 1015.7
20260902231557 68 135 1.0 6.0 0.00 0.00 0.00 77 1015.9
20260902230045 68 133 2.0 5.0 0.00 0.00 0.00 77 1016.5
20260902224552 68 140 2.0 6.0 0.00 0.00 0.00 77 1017.0
20260902223040 68 132 1.0 3.0 0.00 0.00 0.00 77 1017.8
20260902221547 68 127 0.0 4.0 0.00 0.00 0.00 77 1018.1
20260902220037 68 127 1.0 6.0 0.00 0.00 0.00 78 1018.1
20260902214538 68 132 2.0 9.0 0.00 0.00 0.00 78 1018.1